Change the Weather History Date:

Wednesday, April 24, 2013

  Actual Average (KPMD) Record (KPMD)
Temperature  
Mean Temperature 65 °F 60 °F  
Max Temperature 80 °F 75 °F 92 °F (1996)
Min Temperature 49 °F 46 °F 32 °F (1937)
Degree Days  
Heating Degree Days 0 6  
Month to date heating degree days 200  
Since 1 July heating degree days 2821  
Cooling Degree Days 0 1  
Month to date cooling degree days 9  
Year to date cooling degree days 11  
Growing Degree Days 15 (Base 50)    
Moisture  
Dew Point 28 °F    
Average Humidity 32    
Maximum Humidity 79    
Minimum Humidity 8    
Precipitation  
Precipitation 0.00 in 0.02 in 0.03 in (1967)
Month to date precipitation 0.40  
Year to date precipitation 4.91  
Since 1 July precipitation 7.89  
Snow  
Snow 0.00 in - 0.00 in (1973)
Month to date snowfall  
Since 1 July snowfall  
Snow Depth -    
Sea Level Pressure  
Sea Level Pressure 29.81 in    
Wind  
Wind Speed 7 mph (ENE)    
Max Wind Speed 16 mph    
Max Gust Speed 28 mph    
Visibility 10 miles    
Events Rain    
T = Trace of Precipitation, MM = Missing Value Source: NWS Daily Summary

Daily Weather History Graph

Daily Weather History Graph

Search for Another Location

Airport or City:

Trip Planner

Search our weather history database for the weather conditions in past years. The results will help you decide how hot, cold, wet, or windy it might be!

Date:

Astronomy

Apr. 24, 2013 Rise Set
Actual Time 6:07 AM PDT 7:30 PM PDT
Civil Twilight 5:41 AM PDT 7:56 PM PDT
Nautical Twilight 5:09 AM PDT 8:28 PM PDT
Astronomical Twilight 4:36 AM PDT 9:01 PM PDT
Moon 6:39 PM PDT (4/24) 5:11 AM PDT (4/24)
Length of Visible Light 14h 15m
Length of Day
13h 22m
Waxing Gibbous, 98% of the Moon is Illuminated
Apr 24
Waxing Gibbous
Apr 25
Full
May 2
Last Quarter
May 9
New
May 17
First Quarter

Hourly Weather History & Observations

Time (PDT) Temp. Dew Point Humidity Pressure Visibility Wind Dir Wind Speed Gust Speed Precip Events Conditions
12:55 AM 54.1 °F 16.2 °F 22% 29.87 in 10.0 mi South 4.6 mph - N/A   Clear
1:55 AM 53.8 °F 16.5 °F 23% 29.85 in 10.0 mi SSW 3.5 mph - N/A   Clear
2:55 AM 52.9 °F 18.0 °F 25% 29.83 in 10.0 mi South 4.6 mph - N/A   Clear
3:55 AM 53.1 °F 22.8 °F 31% 29.82 in 10.0 mi South 4.6 mph - N/A   Clear
4:55 AM 51.3 °F 20.8 °F 30% 29.82 in 10.0 mi South 5.8 mph - N/A   Clear
5:55 AM 50.7 °F 20.7 °F 31% 29.82 in 10.0 mi South 6.9 mph - N/A   Unknown
6:55 AM - - N/A% - - North - - N/A   Unknown
7:55 AM - - N/A% - - North - - N/A   Unknown
8:55 AM 69.8 °F 26.8 °F 20% 29.86 in 10.0 mi East 6.9 mph - N/A   Clear
9:55 AM 72.1 °F 25.2 °F 17% 29.86 in 10.0 mi ENE 11.5 mph 15.0 mph N/A   Unknown
10:55 AM 76.3 °F 25.9 °F 15% 29.85 in - ENE 11.5 mph - N/A   Unknown
11:55 AM 77.4 °F 22.8 °F 13% 29.83 in 10.0 mi East 13.8 mph 23.0 mph N/A   Clear
12:55 PM 78.4 °F 17.6 °F 10% 29.81 in 10.0 mi ENE 15.0 mph 26.5 mph N/A   Clear
1:55 PM 79.5 °F 14.7 °F 9% 29.78 in 10.0 mi NE 16.1 mph 27.6 mph N/A   Partly Cloudy
2:55 PM 80.4 °F 13.8 °F 8% 29.75 in 10.0 mi NE 16.1 mph 27.6 mph N/A   Clear
3:55 PM 79.5 °F 16.9 °F 10% 29.74 in 10.0 mi ENE 10.4 mph 27.6 mph N/A   Scattered Clouds
4:55 PM 77.4 °F 24.4 °F 14% 29.74 in 10.0 mi SSE 11.5 mph 20.7 mph N/A   Mostly Cloudy
5:55 PM 75.0 °F 25.3 °F 16% 29.75 in 10.0 mi SSE 10.4 mph - N/A   Partly Cloudy
6:55 PM 67.8 °F 39.4 °F 35% 29.78 in 10.0 mi NW 6.9 mph - N/A   Mostly Cloudy
7:55 PM 60.3 °F 44.1 °F 55% 29.80 in 10.0 mi NE 6.9 mph - N/A   Partly Cloudy
8:00 PM 60.8 °F 44.6 °F 55% 29.80 in 10.0 mi NE 8.1 mph - N/A Rain Light Rain
8:30 PM 59.0 °F 44.6 °F 59% 29.80 in 10.0 mi NNW 10.4 mph - N/A   Mostly Cloudy
8:55 PM 59.7 °F 42.1 °F 52% 29.80 in 10.0 mi NNW 10.4 mph - N/A   Mostly Cloudy
9:55 PM 54.7 °F 43.2 °F 65% 29.83 in 10.0 mi North 3.5 mph - N/A   Clear
10:55 PM 53.1 °F 42.1 °F 66% 29.84 in 10.0 mi North 2.3 mph - N/A   Partly Cloudy
11:55 PM 49.5 °F 43.3 °F 79% 29.85 in 10.0 mi NE 3.5 mph - N/A   Clear